Time,TemperatureF,DewpointF,PressureIn,WindDirection,WindDirectionDegrees,WindSpeedMPH,WindSpeedGustMPH,Humidity,HourlyPrecipIn,Conditions,Clouds,dailyrainin,SoftwareType,DateUTC
2013-05-02 00:01:00,30.0,2.0,-100.00,NE,49,3.0,5.0,29,-99.99,,,-99.99,,2013-05-02 07:01:00,
2013-05-02 00:11:00,30.0,2.0,-100.00,NE,49,3.0,5.0,29,-99.99,,,-99.99,,2013-05-02 07:11:00,
2013-05-02 00:21:00,30.0,3.0,-100.00,NNW,344,2.0,4.0,31,-99.99,,,-99.99,,2013-05-02 07:21:00,
2013-05-02 00:31:00,30.0,3.0,-100.00,NNW,344,2.0,4.0,31,-99.99,,,-99.99,,2013-05-02 07:31:00,
2013-05-02 00:41:00,30.0,3.0,-100.00,NNW,344,2.0,4.0,31,-99.99,,,-99.99,,2013-05-02 07:41:00,
2013-05-02 00:52:00,28.0,3.0,-100.00,North,11,0.0,3.0,34,-99.99,,,-99.99,,2013-05-02 07:52:00,
2013-05-02 01:02:00,28.0,4.0,-100.00,NW,318,2.0,6.0,35,-99.99,,,-99.99,,2013-05-02 08:02:00,
2013-05-02 01:11:00,28.0,4.0,-100.00,NW,318,2.0,6.0,35,-99.99,,,-99.99,,2013-05-02 08:11:00,
2013-05-02 01:21:00,27.0,3.0,-100.00,NNW,347,3.0,6.0,35,-99.99,,,-99.99,,2013-05-02 08:21:00,
2013-05-02 01:32:00,27.0,3.0,-100.00,NNW,347,2.0,5.0,35,-99.99,,,-99.99,,2013-05-02 08:32:00,
2013-05-02 01:42:00,27.0,3.0,-100.00,NNW,347,2.0,5.0,35,-99.99,,,-99.99,,2013-05-02 08:42:00,
2013-05-02 01:52:00,25.0,2.0,-100.00,NW,320,4.0,8.0,36,-99.99,,,-99.99,,2013-05-02 08:52:00,
2013-05-02 02:02:00,26.0,4.0,-100.00,NW,315,2.0,4.0,38,-99.99,,,-99.99,,2013-05-02 09:02:00,
2013-05-02 02:11:00,26.0,4.0,-100.00,NW,315,2.0,4.0,38,-99.99,,,-99.99,,2013-05-02 09:11:00,
2013-05-02 02:21:00,26.0,4.0,-100.00,North,357,2.0,5.0,38,-99.99,,,-99.99,,2013-05-02 09:21:00,
2013-05-02 02:32:00,22.0,2.0,-100.00,NNE,20,6.0,9.0,42,-99.99,,,-99.99,,2013-05-02 09:32:00,
2013-05-02 02:52:00,25.0,5.0,-100.00,NE,35,5.0,10.0,42,-99.99,,,-99.99,,2013-05-02 09:52:00,
2013-05-02 03:02:00,27.0,5.0,-100.00,NNE,16,6.0,10.0,39,-99.99,,,-99.99,,2013-05-02 10:02:00,
2013-05-02 03:12:00,27.0,5.0,-100.00,NNE,16,6.0,10.0,39,-99.99,,,-99.99,,2013-05-02 10:12:00,
2013-05-02 03:22:00,27.0,6.0,-100.00,NNE,17,6.0,8.0,39,-99.99,,,-99.99,,2013-05-02 10:22:00,
2013-05-02 03:32:00,28.0,6.0,-100.00,NNW,329,9.0,13.0,39,-99.99,,,-99.99,,2013-05-02 10:32:00,
2013-05-02 03:42:00,28.0,6.0,-100.00,NNW,329,9.0,13.0,39,-99.99,,,-99.99,,2013-05-02 10:42:00,
2013-05-02 03:52:00,26.0,5.0,-100.00,NW,320,7.0,10.0,40,-99.99,,,-99.99,,2013-05-02 10:52:00,
2013-05-02 04:02:00,26.0,5.0,-100.00,NW,320,7.0,10.0,40,-99.99,,,-99.99,,2013-05-02 11:02:00,
2013-05-02 04:11:00,20.0,2.0,-100.00,SSE,168,4.0,5.0,45,-99.99,,,-99.99,,2013-05-02 11:11:00,
2013-05-02 04:22:00,18.0,1.0,-100.00,SSE,154,4.0,5.0,45,-99.99,,,-99.99,,2013-05-02 11:22:00,
2013-05-02 04:32:00,16.0,2.0,-100.00,ESE,121,4.0,6.0,52,-99.99,,,-99.99,,2013-05-02 11:32:00,
2013-05-02 04:52:00,20.0,6.0,-100.00,ESE,107,3.0,6.0,52,-99.99,,,-99.99,,2013-05-02 11:52:00,
2013-05-02 05:01:00,20.0,6.0,-100.00,ESE,107,3.0,6.0,52,-99.99,,,-99.99,,2013-05-02 12:01:00,
2013-05-02 05:21:00,18.0,4.0,-100.00,ESE,110,5.0,8.0,54,-99.99,,,-99.99,,2013-05-02 12:21:00,
2013-05-02 05:32:00,18.0,4.0,-100.00,ESE,110,5.0,8.0,54,-99.99,,,-99.99,,2013-05-02 12:32:00,
2013-05-02 05:52:00,17.0,4.0,-100.00,ESE,110,7.0,10.0,55,-99.99,,,-99.99,,2013-05-02 12:52:00,
2013-05-02 06:01:00,17.0,4.0,-100.00,ESE,119,6.0,9.0,55,-99.99,,,-99.99,,2013-05-02 13:01:00,
2013-05-02 06:21:00,18.0,5.0,-100.00,SSW,193,2.0,5.0,54,-99.99,,,-99.99,,2013-05-02 13:21:00,
2013-05-02 06:31:00,21.0,5.0,-100.00,SE,128,2.0,4.0,49,-99.99,,,-99.99,,2013-05-02 13:31:00,
2013-05-02 06:42:00,21.0,5.0,-100.00,SE,128,2.0,4.0,49,-99.99,,,-99.99,,2013-05-02 13:42:00,
2013-05-02 06:52:00,20.0,5.0,-100.00,ESE,104,3.0,6.0,51,-99.99,,,-99.99,,2013-05-02 13:52:00,
2013-05-02 07:02:00,22.0,6.0,-100.00,SSE,158,2.0,5.0,49,-99.99,,,-99.99,,2013-05-02 14:02:00,
2013-05-02 07:11:00,22.0,6.0,-100.00,SSE,158,2.0,5.0,49,-99.99,,,-99.99,,2013-05-02 14:11:00,
2013-05-02 07:21:00,27.0,6.0,-100.00,SE,130,2.0,3.0,40,-99.99,,,-99.99,,2013-05-02 14:21:00,
2013-05-02 07:32:00,30.0,6.0,-100.00,North,-999,0.0,0.0,36,-99.99,,,-99.99,,2013-05-02 14:32:00,
2013-05-02 07:42:00,30.0,6.0,-100.00,North,-999,0.0,0.0,36,-99.99,,,-99.99,,2013-05-02 14:42:00,
2013-05-02 07:52:00,31.0,6.0,-100.00,NW,311,2.0,4.0,35,-99.99,,,-99.99,,2013-05-02 14:52:00,
2013-05-02 08:02:00,31.0,6.0,-100.00,NW,311,2.0,4.0,35,-99.99,,,-99.99,,2013-05-02 15:02:00,
2013-05-02 08:12:00,31.0,6.0,-100.00,NW,311,2.0,4.0,35,-99.99,,,-99.99,,2013-05-02 15:12:00,
2013-05-02 08:21:00,33.0,6.0,-100.00,WNW,301,1.0,5.0,31,-99.99,,,-99.99,,2013-05-02 15:21:00,
2013-05-02 08:33:00,34.0,6.0,-100.00,NW,308,2.0,6.0,30,-99.99,,,-99.99,,2013-05-02 15:33:00,
2013-05-02 08:43:00,34.0,6.0,-100.00,NW,308,2.0,6.0,30,-99.99,,,-99.99,,2013-05-02 15:43:00,
2013-05-02 09:02:00,35.0,5.0,-100.00,NW,306,2.0,6.0,28,-99.99,,,-99.99,,2013-05-02 16:02:00,
2013-05-02 09:13:00,37.0,5.0,-100.00,NW,325,3.0,7.0,25,-99.99,,,-99.99,,2013-05-02 16:13:00,
2013-05-02 09:22:00,39.0,5.0,-100.00,NW,318,3.0,7.0,24,-99.99,,,-99.99,,2013-05-02 16:22:00,
2013-05-02 09:32:00,40.0,2.0,-100.00,NW,309,4.0,7.0,20,-99.99,,,-99.99,,2013-05-02 16:32:00,
2013-05-02 09:43:00,40.0,2.0,-100.00,NW,309,4.0,7.0,20,-99.99,,,-99.99,,2013-05-02 16:43:00,
2013-05-02 09:52:00,42.0,1.0,-100.00,North,349,1.0,5.0,17,-99.99,,,-99.99,,2013-05-02 16:52:00,
2013-05-02 10:02:00,42.0,1.0,-100.00,North,349,1.0,5.0,17,-99.99,,,-99.99,,2013-05-02 17:02:00,
2013-05-02 10:12:00,42.0,1.0,-100.00,North,349,1.0,5.0,17,-99.99,,,-99.99,,2013-05-02 17:12:00,
2013-05-02 10:22:00,46.0,-1.0,-100.00,SW,216,2.0,6.0,14,-99.99,,,-99.99,,2013-05-02 17:22:00,
2013-05-02 10:31:00,45.0,0.0,-100.00,WNW,296,3.0,6.0,15,-99.99,,,-99.99,,2013-05-02 17:31:00,
2013-05-02 10:42:00,45.0,0.0,-100.00,WNW,296,3.0,6.0,15,-99.99,,,-99.99,,2013-05-02 17:42:00,
2013-05-02 10:51:00,48.0,1.0,-100.00,East,89,3.0,8.0,14,-99.99,,,-99.99,,2013-05-02 17:51:00,
2013-05-02 11:01:00,47.0,1.0,-100.00,East,83,2.0,6.0,14,-99.99,,,-99.99,,2013-05-02 18:01:00,
2013-05-02 11:11:00,47.0,1.0,-100.00,East,83,2.0,6.0,14,-99.99,,,-99.99,,2013-05-02 18:11:00,
2013-05-02 11:21:00,47.0,0.0,-100.00,North,350,5.0,12.0,14,-99.99,,,-99.99,,2013-05-02 18:21:00,
2013-05-02 11:31:00,49.0,0.0,-100.00,SW,217,6.0,12.0,13,-99.99,,,-99.99,,2013-05-02 18:31:00,
2013-05-02 11:41:00,49.0,0.0,-100.00,SW,217,6.0,12.0,13,-99.99,,,-99.99,,2013-05-02 18:41:00,
2013-05-02 11:51:00,50.0,3.0,-100.00,West,277,3.0,11.0,14,-99.99,,,-99.99,,2013-05-02 18:51:00,
2013-05-02 12:01:00,50.0,3.0,-100.00,West,277,3.0,11.0,14,-99.99,,,-99.99,,2013-05-02 19:01:00,
2013-05-02 12:11:00,50.0,3.0,-100.00,West,277,3.0,11.0,14,-99.99,,,-99.99,,2013-05-02 19:11:00,
2013-05-02 12:21:00,51.0,0.0,-100.00,South,171,3.0,8.0,12,-99.99,,,-99.99,,2013-05-02 19:21:00,
2013-05-02 12:31:00,51.0,0.0,-100.00,South,171,3.0,8.0,12,-99.99,,,-99.99,,2013-05-02 19:31:00,
2013-05-02 12:41:00,51.0,0.0,-100.00,South,171,3.0,8.0,12,-99.99,,,-99.99,,2013-05-02 19:41:00,
2013-05-02 12:52:00,53.0,2.0,-100.00,SSE,150,4.0,9.0,12,-99.99,,,-99.99,,2013-05-02 19:52:00,
2013-05-02 13:02:00,53.0,3.0,-100.00,South,179,5.0,13.0,13,-99.99,,,-99.99,,2013-05-02 20:02:00,
2013-05-02 13:11:00,53.0,3.0,-100.00,South,179,5.0,13.0,13,-99.99,,,-99.99,,2013-05-02 20:11:00,
2013-05-02 13:22:00,54.0,3.0,-100.00,SSW,212,4.0,9.0,12,-99.99,,,-99.99,,2013-05-02 20:22:00,
2013-05-02 13:32:00,56.0,2.0,-100.00,ENE,69,3.0,8.0,11,-99.99,,,-99.99,,2013-05-02 20:32:00,
2013-05-02 13:41:00,56.0,2.0,-100.00,ENE,69,3.0,8.0,11,-99.99,,,-99.99,,2013-05-02 20:41:00,
2013-05-02 13:52:00,56.0,0.0,-100.00,WSW,258,1.0,7.0,10,-99.99,,,-99.99,,2013-05-02 20:52:00,
2013-05-02 14:01:00,56.0,2.0,-100.00,ESE,123,2.0,6.0,11,-99.99,,,-99.99,,2013-05-02 21:01:00,
2013-05-02 14:11:00,56.0,2.0,-100.00,ESE,123,2.0,6.0,11,-99.99,,,-99.99,,2013-05-02 21:11:00,
2013-05-02 14:21:00,57.0,3.0,-100.00,SSE,148,3.0,8.0,11,-99.99,,,-99.99,,2013-05-02 21:21:00,
2013-05-02 14:33:00,57.0,3.0,-100.00,WNW,295,9.0,15.0,11,-99.99,,,-99.99,,2013-05-02 21:33:00,
2013-05-02 14:42:00,57.0,3.0,-100.00,WNW,295,9.0,15.0,11,-99.99,,,-99.99,,2013-05-02 21:42:00,
2013-05-02 14:53:00,57.0,3.0,-100.00,WNW,295,9.0,15.0,11,-99.99,,,-99.99,,2013-05-02 21:53:00,
2013-05-02 15:02:00,59.0,2.0,-100.00,NE,47,6.0,14.0,10,-99.99,,,-99.99,,2013-05-02 22:02:00,
2013-05-02 15:12:00,59.0,2.0,-100.00,NE,47,6.0,14.0,10,-99.99,,,-99.99,,2013-05-02 22:12:00,
2013-05-02 15:22:00,58.0,-1.0,-100.00,ENE,68,9.0,21.0,9,-99.99,,,-99.99,,2013-05-02 22:22:00,
2013-05-02 15:30:00,60.0,-1.0,-100.00,ESE,116,6.0,14.0,8,-99.99,,,-99.99,,2013-05-02 22:30:00,
2013-05-02 15:32:00,59.0,2.0,-100.00,ENE,72,9.0,19.0,10,-99.99,,,-99.99,,2013-05-02 22:32:00,
2013-05-02 15:42:00,59.0,2.0,-100.00,ENE,72,9.0,19.0,10,-99.99,,,-99.99,,2013-05-02 22:42:00,
2013-05-02 15:52:00,60.0,-2.0,-100.00,ESE,106,6.0,12.0,8,-99.99,,,-99.99,,2013-05-02 22:52:00,
2013-05-02 16:02:00,60.0,-1.0,-100.00,ESE,116,6.0,14.0,8,-99.99,,,-99.99,,2013-05-02 23:02:00,
2013-05-02 16:11:00,60.0,-1.0,-100.00,ESE,116,6.0,14.0,8,-99.99,,,-99.99,,2013-05-02 23:11:00,
2013-05-02 16:22:00,60.0,-1.0,-100.00,ESE,116,6.0,14.0,8,-99.99,,,-99.99,,2013-05-02 23:22:00,
2013-05-02 16:52:00,59.0,2.0,-100.00,SE,141,11.0,19.0,10,-99.99,,,-99.99,,2013-05-02 23:52:00,
2013-05-02 17:01:00,59.0,2.0,-100.00,SE,126,10.0,19.0,10,-99.99,,,-99.99,,2013-05-03 00:01:00,
2013-05-02 17:11:00,59.0,2.0,-100.00,SE,126,10.0,19.0,10,-99.99,,,-99.99,,2013-05-03 00:11:00,
2013-05-02 17:21:00,59.0,2.0,-100.00,SE,124,11.0,17.0,10,-99.99,,,-99.99,,2013-05-03 00:21:00,
2013-05-02 17:31:00,59.0,2.0,-100.00,SE,124,11.0,17.0,10,-99.99,,,-99.99,,2013-05-03 00:31:00,
2013-05-02 17:41:00,59.0,2.0,-100.00,SE,124,11.0,17.0,10,-99.99,,,-99.99,,2013-05-03 00:41:00,
2013-05-02 17:52:00,58.0,2.0,-100.00,ESE,114,11.0,16.0,10,-99.99,,,-99.99,,2013-05-03 00:52:00,
2013-05-02 18:01:00,58.0,2.0,-100.00,ESE,117,9.0,13.0,10,-99.99,,,-99.99,,2013-05-03 01:01:00,
2013-05-02 18:11:00,58.0,2.0,-100.00,ESE,117,9.0,13.0,10,-99.99,,,-99.99,,2013-05-03 01:11:00,
2013-05-02 18:21:00,57.0,1.0,-100.00,ESE,123,7.0,12.0,10,-99.99,,,-99.99,,2013-05-03 01:21:00,
2013-05-02 18:31:00,57.0,3.0,-100.00,ESE,119,10.0,15.0,11,-99.99,,,-99.99,,2013-05-03 01:31:00,
2013-05-02 18:42:00,57.0,3.0,-100.00,ESE,119,10.0,15.0,11,-99.99,,,-99.99,,2013-05-03 01:42:00,
2013-05-02 18:52:00,57.0,5.0,-100.00,ESE,112,10.0,14.0,12,-99.99,,,-99.99,,2013-05-03 01:52:00,
2013-05-02 19:01:00,56.0,4.0,-100.00,East,99,9.0,12.0,12,-99.99,,,-99.99,,2013-05-03 02:01:00,
2013-05-02 19:11:00,56.0,4.0,-100.00,East,99,9.0,12.0,12,-99.99,,,-99.99,,2013-05-03 02:11:00,
2013-05-02 19:21:00,55.0,4.0,-100.00,ESE,113,7.0,10.0,12,-99.99,,,-99.99,,2013-05-03 02:21:00,
2013-05-02 19:30:00,51.0,2.0,-100.00,East,89,6.0,9.0,13,-99.99,,,-99.99,,2013-05-03 02:30:00,
2013-05-02 19:31:00,55.0,5.0,-100.00,ESE,106,5.0,8.0,13,-99.99,,,-99.99,,2013-05-03 02:31:00,
2013-05-02 19:42:00,55.0,5.0,-100.00,ESE,106,5.0,8.0,13,-99.99,,,-99.99,,2013-05-03 02:42:00,
2013-05-02 19:52:00,53.0,2.0,-100.00,East,88,6.0,9.0,12,-99.99,,,-99.99,,2013-05-03 02:52:00,
2013-05-02 20:01:00,51.0,2.0,-100.00,East,89,6.0,9.0,13,-99.99,,,-99.99,,2013-05-03 03:01:00,
2013-05-02 20:11:00,51.0,2.0,-100.00,East,89,6.0,9.0,13,-99.99,,,-99.99,,2013-05-03 03:11:00,
2013-05-02 20:21:00,51.0,2.0,-100.00,East,89,6.0,9.0,13,-99.99,,,-99.99,,2013-05-03 03:21:00,
2013-05-02 21:02:00,46.0,-1.0,-100.00,East,85,6.0,8.0,14,-99.99,,,-99.99,,2013-05-03 04:02:00,
2013-05-02 21:12:00,46.0,-1.0,-100.00,East,85,6.0,8.0,14,-99.99,,,-99.99,,2013-05-03 04:12:00,
2013-05-02 21:22:00,41.0,-1.0,-100.00,SSW,192,8.0,10.0,17,-99.99,,,-99.99,,2013-05-03 04:22:00,
2013-05-02 21:32:00,40.0,0.0,-100.00,South,176,6.0,9.0,18,-99.99,,,-99.99,,2013-05-03 04:32:00,
2013-05-02 21:42:00,38.0,-1.0,-100.00,SSE,164,7.0,9.0,19,-99.99,,,-99.99,,2013-05-03 04:42:00,
2013-05-02 21:52:00,36.0,0.0,-100.00,SE,141,7.0,10.0,21,-99.99,,,-99.99,,2013-05-03 04:52:00,
2013-05-02 22:02:00,36.0,0.0,-100.00,SE,141,7.0,10.0,21,-99.99,,,-99.99,,2013-05-03 05:02:00,
2013-05-02 22:21:00,36.0,0.0,-100.00,ESE,112,8.0,10.0,21,-99.99,,,-99.99,,2013-05-03 05:21:00,
2013-05-02 22:32:00,35.0,0.0,-100.00,ESE,123,7.0,9.0,22,-99.99,,,-99.99,,2013-05-03 05:32:00,
2013-05-02 22:42:00,35.0,0.0,-100.00,ESE,123,7.0,9.0,22,-99.99,,,-99.99,,2013-05-03 05:42:00,
2013-05-02 22:52:00,35.0,1.0,-100.00,ESE,106,0.0,3.0,23,-99.99,,,-99.99,,2013-05-03 05:52:00,
2013-05-02 23:01:00,34.0,0.0,-100.00,SW,226,0.0,1.0,23,-99.99,,,-99.99,,2013-05-03 06:01:00,
2013-05-02 23:11:00,34.0,0.0,-100.00,SW,226,0.0,1.0,23,-99.99,,,-99.99,,2013-05-03 06:11:00,
2013-05-02 23:21:00,33.0,0.0,-100.00,SSE,162,1.0,3.0,23,-99.99,,,-99.99,,2013-05-03 06:21:00,
2013-05-02 23:32:00,33.0,1.0,-100.00,ESE,119,0.0,2.0,24,-99.99,,,-99.99,,2013-05-03 06:32:00,
2013-05-02 23:42:00,33.0,1.0,-100.00,ESE,119,0.0,2.0,24,-99.99,,,-99.99,,2013-05-03 06:42:00,
2013-05-02 23:51:00,31.0,0.0,-100.00,NNE,21,3.0,4.0,26,-99.99,,,-99.99,,2013-05-03 06:51:00,